STARLINK-33833, 63498

Orbit data source: Space-Track

STARLINK-33833, 63498 is a payload satellite owned by SpaceX/Seattle (US) in LEO that was launched on Mon, 07 Apr 2025 UTC via an FALCON 9 launch vehicle from the Air Force Western Test Range (AFWTR). Payload-class satellites include a variety of spacecraft equipped with specific instruments for various scientific and technological missions. These include communications satellites like Starlink; space stations such as the ISS; scientific satellites like the Hubble; Earth observation satellites from companies like Planet Labs, Umbra, and HawkEye 360; GPS; miniature CubeSats for education and research; and military/defense satellites.

Loading next visibility...
Identifier
63498, 2025-071F
Orbit
LEO
Last TLE update
6 hours ago
Origin
Manufacturer
SpaceX/Seattle
Mission
Operational Commercial Communications
Bus & Motor
STARLINK V2MO, Unknown motor
Mass
575 kg wet, ~530 kg dry
Launch date (UTC)
2025-04-07 (1 month ago)
Launch vehicle
FALCON 9
Launch site
Air Force Western Test Range (AFWTR)
Object type
Payload
Rocket body
Debris
Shape & HBR
Box + 1 Pan, 29 m
Radar Cross Section
41.120 m², Large (>1 m²)

Expand to show TLE details & history

TLE from 6 hours ago
0 STARLINK-33833
1 63498U 25071F   25129.09718026 -.00028055  00000-0 -50235-3 0  9997
2 63498  53.1619 119.1099 0001616 183.1859 176.9140 15.49072237  6077
Epoch: 2025-05-09T02:19Z
Definitive object data (Epoch: 2025-05-09T02:19:56.374Z)
Latitude
-0.00002°
Longitude
-143.03322°
Altitude
421.443 km
Speed
7.659 km/s
True Right ascension
07h 56m 26s
True Declination
0° 00' 00"
Sunlit
Object was in daylight at TLE epoch
Visualization TLE readout
Latitude
-1.60666°
Longitude
-145.46261°
Altitude
421.704 km
Speed
7.659 km/s
Apparent Right ascension
06h 29m 28s
Apparent Declination
-21° 35' 14"
Sunlit
Object is in daylight
Visualization observer readout
Local Sidereal Time
16:40:13
Azimuth
300.162° NW
Elevation
-60.43°
Doppler factor
1
Orbital elements
Apogee altitude
420.796 km
Perigee altitude
418.598 km
Semi-major axis
6,797.834 km
Eccentricity
0.0001616
Inclination
53.1619°
RAAN
119.1099°
Arg. of periapsis
183.1859°
True anomaly
176.915°
Mean anomaly
176.914°
Eccentric anomaly
176.9145°
Mean motion
3.87246 °/min
BSTAR
-0.00050235
Orbital period
92.96 mins
Loading maneuver chart data...
Loading SW <> Apogee altitude chart data...
Loading historical data...
Loading historical data...
Loading historical data...
Loading historical data...
Loading historical data...
Loading historical data...
Loading historical data...

STARLINK-33833 Visibility forecast

Observer location: undefined°, undefined°

Span
Click to sort rows by Start time (UTC) header in descending order
Start Az.
Max El. time (UTC)
Max El. Az.
Max El.
End time (UTC)
End Az.
6 mins2025-05-09 09:01:03.018Z311.169° NW2025-05-09 09:04:03.018Z352.213° N44.704°2025-05-09 09:07:03.018Z128.7° SE
5 mins2025-05-10 01:45:03.018Z212.183° SW2025-05-10 01:47:03.018Z104.665° ESE40.948°2025-05-10 01:50:03.018Z55.499° ENE
4 mins2025-05-10 08:15:03.018Z331.334° NNW2025-05-10 08:17:03.018Z52.09° ENE35.757°2025-05-10 08:19:03.018Z105.469° ESE
|